• In Österreich
  • Länderverzeichnis
  • Für 7 Tage
  • Wassertemperatur
  • Satellitenkarten
  • Wetterkarte
  • News
  • Widgets
  • user-avatar
    Anmelden

    Stündliche Wetter Elzbiecin

    Heute, 16 Juli, Montag

    Zeit Temperatur Niederschläge Wind Luftdruck Luftfeuchtigkeit
    00:00 +17°C° 0 mm 4 m/S 749 mmHg 93%
    01:00 +16°C° 0 mm 3 m/S 749 mmHg 95%
    02:00 +16°C° 0 mm 3 m/S 748 mmHg 95%
    03:00 +16°C° 0 mm 3 m/S 748 mmHg 96%
    04:00 +16°C° 0 mm 3 m/S 748 mmHg 96%
    05:00 +17°C° 0,5 mm 3 m/S 748 mmHg 94%
    06:00 +19°C° 0,5 mm 3 m/S 748 mmHg 91%
    07:00 +20°C° 0,5 mm 3 m/S 748 mmHg 88%
    08:00 +21°C° 0,8 mm 3 m/S 748 mmHg 84%
    09:00 +22°C° 0,8 mm 3 m/S 748 mmHg 80%
    10:00 +25°C° 0,8 mm 3 m/S 747 mmHg 76%
    11:00 +25°C° 0,8 mm 3 m/S 747 mmHg 75%
    12:00 +25°C° 0,8 mm 4 m/S 747 mmHg 73%
    13:00 +25°C° 0,8 mm 4 m/S 747 mmHg 72%
    14:00 +25°C° 1,2 mm 4 m/S 747 mmHg 76%
    15:00 +23°C° 1,2 mm 4 m/S 746 mmHg 80%
    16:00 +22°C° 1,2 mm 4 m/S 746 mmHg 84%
    17:00 +22°C° 1 mm 4 m/S 746 mmHg 87%
    18:00 +21°C° 1 mm 3 m/S 746 mmHg 89%
    19:00 +20°C° 1 mm 3 m/S 746 mmHg 92%
    20:00 +20°C° 0,7 mm 3 m/S 746 mmHg 93%
    21:00 +19°C° 0,7 mm 3 m/S 745 mmHg 94%
    22:00 +19°C° 0,7 mm 3 m/S 745 mmHg 95%
    23:00 +19°C° 0,3 mm 3 m/S 745 mmHg 95%

    Morgen, 17 Juli, Dienstag

    Zeit Temperatur Niederschläge Wind Luftdruck Luftfeuchtigkeit
    00:00 +19°C° 0,3 mm 3 m/S 745 mmHg 95%
    01:00 +18°C° 0,3 mm 3 m/S 745 mmHg 95%
    02:00 +18°C° 0,3 mm 3 m/S 744 mmHg 95%
    03:00 +18°C° 0,3 mm 3 m/S 744 mmHg 96%
    04:00 +18°C° 0,3 mm 3 m/S 744 mmHg 96%
    05:00 +19°C° 0,6 mm 3 m/S 744 mmHg 95%
    06:00 +20°C° 0,6 mm 3 m/S 744 mmHg 93%
    07:00 +21°C° 0,6 mm 3 m/S 744 mmHg 91%
    08:00 +21°C° 0,7 mm 3 m/S 744 mmHg 89%
    09:00 +22°C° 0,7 mm 3 m/S 744 mmHg 87%
    10:00 +24°C° 0,7 mm 3 m/S 744 mmHg 84%
    11:00 +24°C° 0,4 mm 3 m/S 744 mmHg 84%
    12:00 +24°C° 0,4 mm 3 m/S 744 mmHg 84%
    13:00 +24°C° 0,4 mm 2 m/S 743 mmHg 83%
    14:00 +24°C° 0,4 mm 2 m/S 743 mmHg 84%
    15:00 +24°C° 0,4 mm 2 m/S 743 mmHg 85%
    16:00 +24°C° 0,4 mm 2 m/S 743 mmHg 86%
    17:00 +23°C° 0,8 mm 2 m/S 743 mmHg 88%
    18:00 +23°C° 0,8 mm 2 m/S 743 mmHg 91%
    19:00 +21°C° 0,8 mm 2 m/S 743 mmHg 93%
    20:00 +21°C° 0,9 mm 3 m/S 743 mmHg 94%
    21:00 +21°C° 0,9 mm 3 m/S 743 mmHg 95%
    22:00 +20°C° 0,9 mm 3 m/S 743 mmHg 96%
    23:00 +20°C° 0,5 mm 3 m/S 743 mmHg 97%

    übermorgen, 18 Juli, Mittwoch

    Zeit Temperatur Niederschläge Wind Luftdruck Luftfeuchtigkeit
    00:00 +20°C° 0,5 mm 2 m/S 743 mmHg 97%
    01:00 +20°C° 0,5 mm 2 m/S 743 mmHg 97%
    02:00 +20°C° 0,1 mm 2 m/S 743 mmHg 97%
    03:00 +20°C° 0,1 mm 2 m/S 743 mmHg 97%
    04:00 +20°C° 0,1 mm 2 m/S 743 mmHg 97%
    05:00 +21°C° 0 mm 2 m/S 743 mmHg 94%
    06:00 +23°C° 0 mm 2 m/S 743 mmHg 91%
    07:00 +24°C° 0 mm 3 m/S 743 mmHg 89%
    08:00 +25°C° 0,7 mm 3 m/S 743 mmHg 84%
    09:00 +26°C° 0,7 mm 3 m/S 743 mmHg 79%
    10:00 +28°C° 0,7 mm 3 m/S 743 mmHg 74%
    11:00 +28°C° 0,7 mm 3 m/S 743 mmHg 72%
    12:00 +29°C° 0,7 mm 3 m/S 743 mmHg 70%
    13:00 +29°C° 0,7 mm 2 m/S 743 mmHg 68%
    14:00 +29°C° 0,6 mm 3 m/S 743 mmHg 69%
    15:00 +29°C° 0,6 mm 3 m/S 743 mmHg 70%
    16:00 +29°C° 0,6 mm 4 m/S 743 mmHg 72%
    17:00 +28°C° 0,9 mm 3 m/S 744 mmHg 77%
    18:00 +26°C° 0,9 mm 3 m/S 744 mmHg 82%
    19:00 +25°C° 0,9 mm 3 m/S 744 mmHg 88%
    20:00 +24°C° 0,8 mm 3 m/S 744 mmHg 89%
    21:00 +22°C° 0,8 mm 3 m/S 744 mmHg 91%
    22:00 +21°C° 0,8 mm 3 m/S 745 mmHg 93%
    23:00 +21°C° 0,2 mm 3 m/S 745 mmHg 94%

    19 Juli, Donnerstag

    Zeit Temperatur Niederschläge Wind Luftdruck Luftfeuchtigkeit
    00:00 +21°C° 0,2 mm 3 m/S 745 mmHg 94%
    01:00 +20°C° 0,2 mm 3 m/S 745 mmHg 95%
    02:00 +20°C° 0 mm 3 m/S 745 mmHg 95%
    03:00 +19°C° 0 mm 3 m/S 745 mmHg 95%
    04:00 +19°C° 0 mm 3 m/S 745 mmHg 96%
    05:00 +20°C° 0 mm 3 m/S 745 mmHg 92%
    06:00 +21°C° 0 mm 3 m/S 745 mmHg 89%
    07:00 +22°C° 0 mm 4 m/S 745 mmHg 86%
    08:00 +25°C° 0,1 mm 4 m/S 745 mmHg 79%
    09:00 +26°C° 0,1 mm 4 m/S 746 mmHg 71%
    10:00 +28°C° 0,1 mm 4 m/S 746 mmHg 63%
    11:00 +28°C° 0,1 mm 4 m/S 745 mmHg 61%
    12:00 +29°C° 0,1 mm 4 m/S 745 mmHg 59%
    13:00 +29°C° 0,1 mm 4 m/S 745 mmHg 57%
    14:00 +29°C° 0,3 mm 5 m/S 745 mmHg 60%
    15:00 +28°C° 0,3 mm 5 m/S 746 mmHg 63%
    16:00 +28°C° 0,3 mm 5 m/S 746 mmHg 66%
    17:00 +27°C° 0,3 mm 5 m/S 746 mmHg 72%
    18:00 +25°C° 0,3 mm 4 m/S 746 mmHg 77%
    19:00 +24°C° 0,3 mm 3 m/S 746 mmHg 82%
    20:00 +22°C° 0,1 mm 4 m/S 746 mmHg 85%
    21:00 +21°C° 0,1 mm 4 m/S 746 mmHg 88%
    22:00 +20°C° 0,1 mm 4 m/S 747 mmHg 91%
    23:00 +19°C° 0 mm 4 m/S 747 mmHg 92%

    20 Juli, Freitag

    Zeit Temperatur Niederschläge Wind Luftdruck Luftfeuchtigkeit
    00:00 +19°C° 0 mm 4 m/S 747 mmHg 92%
    01:00 +18°C° 0 mm 4 m/S 747 mmHg 93%
    02:00 +18°C° 0 mm 3 m/S 747 mmHg 94%
    03:00 +17°C° 0 mm 3 m/S 747 mmHg 95%
    04:00 +17°C° 0 mm 3 m/S 747 mmHg 96%
    05:00 +18°C° 0 mm 3 m/S 747 mmHg 92%
    06:00 +20°C° 0 mm 3 m/S 747 mmHg 87%
    07:00 +21°C° 0 mm 3 m/S 747 mmHg 83%
    08:00 +23°C° 0,1 mm 4 m/S 747 mmHg 74%
    09:00 +26°C° 0,1 mm 4 m/S 747 mmHg 65%
    10:00 +27°C° 0,1 mm 4 m/S 747 mmHg 57%
    11:00 +28°C° 0 mm 4 m/S 747 mmHg 55%
    12:00 +28°C° 0 mm 5 m/S 747 mmHg 52%
    13:00 +29°C° 0 mm 5 m/S 747 mmHg 50%
    14:00 +28°C° 0 mm 5 m/S 747 mmHg 52%
    15:00 +28°C° 0 mm 5 m/S 747 mmHg 54%
    16:00 +28°C° 0 mm 5 m/S 747 mmHg 56%
    17:00 +26°C° 0 mm 4 m/S 747 mmHg 63%
    18:00 +25°C° 0 mm 3 m/S 747 mmHg 70%
    19:00 +22°C° 0 mm 3 m/S 747 mmHg 76%
    20:00 +21°C° 0 mm 3 m/S 747 mmHg 82%
    21:00 +20°C° 0 mm 3 m/S 747 mmHg 87%
    22:00 +19°C° 0 mm 3 m/S 747 mmHg 92%
    23:00 +18°C° 0 mm 3 m/S 747 mmHg 93%

    21 Juli, Samstag

    Zeit Temperatur Niederschläge Wind Luftdruck Luftfeuchtigkeit
    00:00 +18°C° 0 mm 3 m/S 747 mmHg 94%
    01:00 +17°C° 0 mm 3 m/S 747 mmHg 95%
    02:00 +17°C° 0 mm 2 m/S 747 mmHg 94%
    03:00 +16°C° 0 mm 2 m/S 747 mmHg 93%
    04:00 +16°C° 0 mm 2 m/S 747 mmHg 92%
    05:00 +17°C° 0 mm 2 m/S 747 mmHg 86%
    06:00 +18°C° 0 mm 2 m/S 748 mmHg 80%
    07:00 +20°C° 0 mm 2 m/S 748 mmHg 73%
    08:00 +21°C° 0 mm 2 m/S 748 mmHg 68%
    09:00 +24°C° 0 mm 3 m/S 747 mmHg 62%
    10:00 +25°C° 0 mm 3 m/S 747 mmHg 56%
    11:00 +26°C° 0 mm 3 m/S 747 mmHg 53%
    12:00 +26°C° 0 mm 3 m/S 747 mmHg 51%
    13:00 +27°C° 0 mm 4 m/S 747 mmHg 49%
    14:00 +27°C° 0 mm 3 m/S 747 mmHg 49%
    15:00 +27°C° 0 mm 3 m/S 747 mmHg 50%
    16:00 +27°C° 0 mm 3 m/S 747 mmHg 50%
    17:00 +25°C° 0 mm 3 m/S 747 mmHg 57%
    18:00 +24°C° 0 mm 3 m/S 747 mmHg 64%
    19:00 +21°C° 0 mm 2 m/S 747 mmHg 70%
    20:00 +20°C° 0 mm 2 m/S 747 mmHg 76%
    21:00 +18°C° 0 mm 3 m/S 747 mmHg 82%
    22:00 +17°C° 0 mm 3 m/S 747 mmHg 87%
    23:00 +16°C° 0 mm 2 m/S 747 mmHg 89%
    Mehr zeigen